DW4466 Weather Reports


time (UTC)temp
F
wind
direction
speed
knots
gust
knots
rain 1hr
in
rain 24hr
in
rain mn
in
humidity
%
barometer
mb
20260504110548 43 345 0.0 1.7 0.00 0.00 0.00 87 1013.5
20260504100542 42 314 0.0 0.9 0.00 0.00 0.00 84 1013.4
20260504081505 42 314 0.0 1.7 0.00 0.00 0.00 85 1013.9
20260504081040 42 314 0.0 1.7 0.00 0.00 0.00 85 1013.9
20260504080511 42 231 0.0 0.0 0.00 0.00 0.00 86 1013.8
20260504050523 40 327 0.0 0.0 0.00 0.00 0.00 79 1014.6
20260504045530 40 327 0.0 1.7 0.00 0.00 0.00 79 1014.7
20260504045048 40 327 0.0 1.7 0.00 0.00 0.00 79 1014.8
20260504044519 41 351 0.0 0.0 0.00 0.00 0.00 80 1014.6
20260504044051 41 351 0.0 0.9 0.00 0.00 0.00 80 1014.5
20260504043519 41 351 0.0 1.7 0.00 0.00 0.00 79 1014.6
20260504043037 41 351 0.0 1.7 0.00 0.00 0.00 77 1014.5
20260504042509 41 23 0.0 1.7 0.00 0.00 0.00 76 1014.5
20260504042048 41 23 0.0 1.7 0.00 0.00 0.00 75 1014.5
20260504041529 41 23 0.9 1.7 0.00 0.00 0.00 76 1014.5
20260504041048 41 23 0.9 1.7 0.00 0.00 0.00 76 1014.4
20260504040508 41 23 0.9 1.7 0.00 0.00 0.00 79 1014.4
20260504040040 41 23 0.0 1.7 0.00 0.00 0.00 77 1014.5
20260504035508 41 293 0.0 0.0 0.00 0.00 0.00 74 1014.4
20260504035038 42 293 0.0 0.0 0.00 0.00 0.00 74 1014.4
20260504034506 42 293 0.0 0.0 0.00 0.00 0.00 75 1014.4
20260504034022 42 293 0.0 1.7 0.00 0.00 0.00 75 1014.5
20260504033553 42 293 0.0 1.7 0.00 0.00 0.00 74 1014.5
20260504033023 42 279 0.9 2.6 0.00 0.00 0.00 74 1014.4
20260504032557 42 268 0.9 2.6 0.00 0.00 0.00 72 1014.4
20260504032031 42 339 0.0 1.7 0.00 0.00 0.00 72 1014.3
20260504031507 43 339 0.9 1.7 0.00 0.00 0.00 75 1014.2
20260504031022 43 325 0.0 1.7 0.00 0.00 0.00 73 1014.2
20260504030558 43 325 0.0 1.7 0.00 0.00 0.00 73 1014.2
20260504030500 43 294 0.0 2.6 0.00 0.00 0.00 73 1014.2
20260504030026 44 288 0.0 2.6 0.00 0.00 0.00 70 1014.1
20260504025600 44 273 1.7 2.6 0.00 0.00 0.00 70 1014.1
20260504025503 44 271 1.7 2.6 0.00 0.00 0.00 69 1014.0
20260504025035 44 19 0.0 2.6 0.00 0.00 0.00 68 1013.9
20260504024550 44 34 0.9 2.6 0.00 0.00 0.00 68 1013.9
20260504024020 44 29 0.0 0.0 0.00 0.00 0.00 68 1014.0
20260504023556 44 23 0.0 0.0 0.00 0.00 0.00 68 1013.9
20260504023037 45 354 0.0 0.0 0.00 0.00 0.00 69 1013.9
20260504022506 45 354 0.0 0.0 0.00 0.00 0.00 67 1013.9
20260504022016 46 354 0.0 0.0 0.00 0.00 0.00 71 1013.9
20260504021551 46 354 0.0 0.0 0.00 0.00 0.00 68 1013.9
20260504021022 46 354 0.0 0.0 0.00 0.00 0.00 66 1013.7
20260504020600 46 354 0.0 0.0 0.00 0.00 0.00 64 1013.6
20260504020500 47 354 0.0 0.0 0.00 0.00 0.00 63 1013.6
20260504020028 47 354 0.0 0.0 0.00 0.00 0.00 58 1013.6
20260504015604 47 354 0.0 0.0 0.00 0.00 0.00 61 1013.5
20260504015504 48 354 0.0 0.0 0.00 0.00 0.00 62 1013.5
20260504015039 48 354 0.0 0.0 0.00 0.00 0.00 62 1013.5
20260504014523 48 354 0.0 0.0 0.00 0.00 0.00 62 1013.5
20260504014046 49 354 0.0 0.0 0.00 0.00 0.00 61 1013.4
20260504013518 49 354 0.0 0.0 0.00 0.00 0.00 58 1013.4
20260504013040 50 19 0.0 0.0 0.00 0.00 0.00 55 1013.3
20260504012506 51 42 0.0 0.0 0.00 0.00 0.00 50 1013.2
20260504012042 51 42 0.0 0.0 0.00 0.00 0.00 49 1013.2
20260504011512 51 42 0.0 0.0 0.00 0.00 0.00 47 1013.2
20260504011044 52 42 0.0 0.0 0.00 0.00 0.00 46 1013.1
20260504010516 52 42 0.0 0.0 0.00 0.00 0.00 45 1013.2
20260504010053 53 42 0.0 0.0 0.00 0.00 0.00 45 1013.2
20260504005522 53 42 0.0 0.0 0.00 0.00 0.00 42 1013.2
20260504005056 53 42 0.0 0.0 0.00 0.00 0.00 41 1013.2
20260504004526 54 42 0.0 0.0 0.00 0.00 0.00 42 1013.1
20260504004101 54 42 0.0 0.0 0.00 0.00 0.00 41 1013.1
20260504004003 54 42 0.0 0.0 0.00 0.00 0.00 42 1013.1
20260504003539 55 42 0.0 0.0 0.00 0.00 0.00 43 1013.1
20260504003008 56 42 0.0 0.0 0.00 0.00 0.00 41 1013.0
20260504002524 56 42 0.0 0.0 0.00 0.00 0.00 39 1012.9
20260504002058 57 42 0.0 0.0 0.00 0.00 0.00 38 1012.9
20260504001538 57 42 0.0 0.0 0.00 0.00 0.00 37 1012.8
20260504001100 57 42 0.0 0.9 0.00 0.00 0.00 36 1012.9
20260504001002 58 42 0.0 0.9 0.00 0.00 0.00 36 1012.9
20260504000536 58 42 0.0 1.7 0.00 0.00 0.00 36 1013.0
20260504000052 58 42 0.0 2.6 0.00 0.00 0.00 36 1013.0
20260503235524 59 22 0.9 3.5 0.00 0.00 0.00 36 1013.0
20260503235055 59 30 0.9 5.2 0.00 0.00 0.00 34 1012.9
20260503234524 59 39 2.6 6.1 0.00 0.00 0.00 35 1012.9
20260503234100 60 20 1.7 7.0 0.00 0.00 0.00 35 1012.8
20260503233531 60 13 3.5 7.0 0.00 0.00 0.00 34 1012.8
20260503233048 60 18 2.6 10.4 0.00 0.00 0.00 33 1012.8
20260503232514 60 45 5.2 10.4 0.00 0.00 0.00 33 1012.8
20260503232044 60 36 5.2 9.6 0.00 0.00 0.00 33 1012.7
20260503231514 61 58 4.3 7.8 0.00 0.00 0.00 34 1012.6
20260503231046 61 36 3.5 9.6 0.00 0.00 0.00 33 1012.7
20260503230503 61 54 6.1 9.6 0.00 0.00 0.00 33 1012.7
20260503230043 61 50 4.3 12.2 0.00 0.00 0.00 34 1012.6
20260503225510 61 48 7.8 13.0 0.00 0.00 0.00 33 1012.5
20260503225048 61 70 5.2 13.0 0.00 0.00 0.00 30 1012.4
20260503224514 61 48 6.1 12.2 0.00 0.00 0.00 33 1012.5
20260503224046 62 65 6.1 12.2 0.00 0.00 0.00 32 1012.5
20260503223520 61 38 3.5 8.7 0.00 0.00 0.00 33 1012.4
20260503223051 61 25 6.1 11.3 0.00 0.00 0.00 33 1012.5
20260503222528 61 49 5.2 11.3 0.00 0.00 0.00 31 1012.6
20260503222034 61 36 6.1 11.3 0.00 0.00 0.00 33 1012.6
20260503221508 61 55 6.1 13.9 0.00 0.00 0.00 32 1012.6
20260503221043 61 29 7.0 13.9 0.00 0.00 0.00 32 1012.6
20260503220514 61 32 4.3 11.3 0.00 0.00 0.00 34 1012.6
20260503220042 61 48 4.3 12.2 0.00 0.00 0.00 31 1012.6
20260503215557 61 27 8.7 13.0 0.00 0.00 0.00 32 1012.6
20260503215033 61 34 7.8 13.0 0.00 0.00 0.00 31 1012.7
20260503214508 61 63 8.7 12.2 0.00 0.00 0.00 31 1012.6
20260503214034 62 57 5.2 13.9 0.00 0.00 0.00 35 1012.7
20260503213506 61 10 7.8 14.8 0.00 0.00 0.00 35 1012.7
20260503213023 61 27 9.6 14.8 0.00 0.00 0.00 34 1012.6
20260503212554 61 48 5.2 13.9 0.00 0.00 0.00 33 1012.8
20260503212028 61 45 6.1 11.3 0.00 0.00 0.00 32 1012.8
20260503211506 61 49 4.3 12.2 0.00 0.00 0.00 36 1012.8
20260503211040 61 23 8.7 12.2 0.00 0.00 0.00 31 1012.9
20260503210509 61 17 7.8 12.2 0.00 0.00 0.00 35 1012.9
20260503210026 61 75 7.0 12.2 0.00 0.00 0.00 34 1013.0
20260503205559 61 36 3.5 13.0 0.00 0.00 0.00 33 1012.9
20260503205502 61 13 5.2 13.9 0.00 0.00 0.00 36 1012.9
20260503205036 60 47 8.7 13.9 0.00 0.00 0.00 33 1012.9
20260503204506 61 66 5.2 10.4 0.00 0.00 0.00 32 1012.8
20260503204038 61 11 4.3 9.6 0.00 0.00 0.00 32 1012.9
20260503203512 61 337 3.5 7.8 0.00 0.00 0.00 36 1013.0
20260503203053 61 28 3.5 11.3 0.00 0.00 0.00 34 1013.1
20260503202510 60 90 5.2 13.9 0.00 0.00 0.00 35 1013.0
20260503202044 60 90 8.7 13.9 0.00 0.00 0.00 32 1013.0
20260503201515 60 50 7.0 13.9 0.00 0.00 0.00 31 1013.0
20260503201028 60 50 4.3 13.0 0.00 0.00 0.00 37 1013.1
20260503200505 59 62 5.2 12.2 0.00 0.00 0.00 33 1013.2
20260503200038 59 70 4.3 16.5 0.00 0.00 0.00 35 1013.2
20260503195506 59 55 10.4 16.5 0.00 0.00 0.00 35 1013.4
20260503195037 59 51 7.0 13.9 0.00 0.00 0.00 38 1013.5
20260503194508 59 18 5.2 13.9 0.00 0.00 0.00 37 1013.7
20260503194023 59 55 8.7 15.6 0.00 0.00 0.00 31 1013.7
20260503193552 59 17 7.8 16.5 0.00 0.00 0.00 35 1013.8
20260503193032 59 25 8.7 16.5 0.00 0.00 0.00 36 1013.9
20260503192557 58 36 7.8 13.0 0.00 0.00 0.00 37 1014.0
20260503192031 58 43 5.2 13.0 0.00 0.00 0.00 33 1014.1
20260503191504 58 86 7.8 13.9 0.00 0.00 0.00 33 1014.3
20260503191039 58 100 8.7 20.9 0.00 0.00 0.00 36 1014.5
20260503190508 58 22 8.7 20.9 0.00 0.00 0.00 35 1014.4
20260503190039 58 11 7.0 13.9 0.00 0.00 0.00 39 1014.4
20260503185511 58 88 7.8 13.9 0.00 0.00 0.00 37 1014.5
20260503185049 58 75 7.0 14.8 0.00 0.00 0.00 36 1014.5
20260503184519 57 36 10.4 18.2 0.00 0.00 0.00 40 1014.5
20260503184056 57 41 8.7 18.2 0.00 0.00 0.00 37 1014.6
20260503183529 57 52 6.1 12.2 0.00 0.00 0.00 40 1014.6
20260503183057 57 58 4.3 13.0 0.00 0.00 0.00 44 1014.7
20260503182525 57 36 7.0 12.2 0.00 0.00 0.00 37 1014.7
20260503182059 57 52 4.3 14.8 0.00 0.00 0.00 38 1014.6
20260503182001 57 354 5.2 14.8 0.00 0.00 0.00 41 1014.6
20260503181533 56 352 7.0 14.8 0.00 0.00 0.00 42 1014.7
20260503181005 56 90 5.2 12.2 0.00 0.00 0.00 44 1014.8
20260503180541 55 43 7.0 14.8 0.00 0.00 0.00 38 1014.7
20260503180016 56 91 9.6 14.8 0.00 0.00 0.00 36 1014.7
20260503175529 56 48 7.8 18.2 0.00 0.00 0.00 45 1014.9
20260503175003 56 52 10.4 18.2 0.00 0.00 0.00 42 1014.9
20260503174538 55 57 5.2 12.2 0.00 0.00 0.00 44 1014.9
20260503174009 55 26 5.2 16.5 0.00 0.00 0.00 40 1014.9
20260503173539 55 61 10.4 18.2 0.00 0.00 0.00 41 1014.9
20260503173104 55 27 11.3 18.2 0.00 0.00 0.00 40 1015.0
20260503172525 55 67 9.6 16.5 0.00 0.00 0.00 43 1015.0
20260503172059 55 43 10.4 16.5 0.00 0.00 0.00 43 1015.0
20260503172003 55 45 7.8 13.9 0.00 0.00 0.00 47 1015.0
20260503171544 54 34 9.6 13.0 0.00 0.00 0.00 44 1015.0
20260503171003 54 56 7.0 10.4 0.00 0.00 0.00 43 1015.0
20260503170531 53 36 6.1 14.8 0.00 0.00 0.00 44 1015.1
20260503150554 49 27 9.6 15.6 0.00 0.00 0.00 49 1016.1
20260503131034 45 83 6.1 13.0 0.00 0.00 0.00 61 1016.7
20260503130506 45 38 8.7 13.9 0.00 0.00 0.00 62 1016.7